Time,TemperatureF,DewpointF,PressureIn,WindDirection,WindDirectionDegrees,WindSpeedMPH,WindSpeedGustMPH,Humidity,HourlyPrecipIn,Conditions,Clouds,dailyrainin,SoftwareType,DateUTC
2013-09-30 00:00:00,67.7,35.2,29.88,NE,46,2.0,2.0,30,0.00,,---,0.00,VWS V14.01,2013-09-30 07:00:00,
2013-09-30 00:05:00,66.5,35.0,29.88,NE,37,2.0,3.0,31,0.00,,---,0.00,VWS V14.01,2013-09-30 07:05:00,
2013-09-30 00:10:00,65.2,35.4,29.88,NE,37,3.0,3.0,33,0.00,,---,0.00,VWS V14.01,2013-09-30 07:10:00,
2013-09-30 00:15:00,63.9,35.0,29.88,NE,43,3.0,5.0,34,0.00,,---,0.00,VWS V14.01,2013-09-30 07:15:00,
2013-09-30 00:21:00,63.1,35.0,29.89,NE,46,5.0,6.0,35,0.00,,---,0.00,VWS V14.01,2013-09-30 07:21:00,
2013-09-30 00:26:00,62.7,35.4,29.89,NE,34,4.0,7.0,36,0.00,,---,0.00,VWS V14.01,2013-09-30 07:26:00,
2013-09-30 00:31:00,62.4,35.1,29.88,NE,35,4.0,6.0,36,0.00,,---,0.00,VWS V14.01,2013-09-30 07:31:00,
2013-09-30 00:36:00,62.2,35.6,29.88,NE,42,3.0,6.0,37,0.00,,---,0.00,VWS V14.01,2013-09-30 07:36:00,
2013-09-30 00:41:00,62.7,36.1,29.88,NE,41,2.0,6.0,37,0.00,,---,0.00,VWS V14.01,2013-09-30 07:41:00,
2013-09-30 00:46:00,63.8,36.4,29.88,NNE,26,4.0,7.0,36,0.00,,---,0.00,VWS V14.01,2013-09-30 07:46:00,
2013-09-30 00:51:00,65.0,36.0,29.88,North,1,2.0,7.0,34,0.00,,---,0.00,VWS V14.01,2013-09-30 07:51:00,
2013-09-30 00:56:00,65.6,36.5,29.88,NNE,31,5.0,7.0,34,0.00,,---,0.00,VWS V14.01,2013-09-30 07:56:00,
2013-09-30 01:01:00,66.0,36.1,29.88,North,354,2.0,5.0,33,0.00,,---,0.00,VWS V14.01,2013-09-30 08:01:00,
2013-09-30 01:06:00,66.2,36.3,29.88,NE,34,2.0,5.0,33,0.00,,---,0.00,VWS V14.01,2013-09-30 08:06:00,
2013-09-30 01:11:00,66.2,36.3,29.88,NNE,19,3.0,5.0,33,0.00,,---,0.00,VWS V14.01,2013-09-30 08:11:00,
2013-09-30 01:16:00,66.2,36.3,29.88,NNE,13,4.0,5.0,33,0.00,,---,0.00,VWS V14.01,2013-09-30 08:16:00,
2013-09-30 01:21:00,66.2,36.3,29.88,NNE,13,2.0,5.0,33,0.00,,---,0.00,VWS V14.01,2013-09-30 08:21:00,
2013-09-30 01:27:00,66.3,36.4,29.89,NNE,25,3.0,5.0,33,0.00,,---,0.00,VWS V14.01,2013-09-30 08:27:00,
2013-09-30 01:32:00,66.4,36.5,29.88,NNE,27,3.0,3.0,33,0.00,,---,0.00,VWS V14.01,2013-09-30 08:32:00,
2013-09-30 01:37:00,66.2,36.3,29.88,NNE,25,3.0,4.0,33,0.00,,---,0.00,VWS V14.01,2013-09-30 08:37:00,
2013-09-30 01:42:00,65.9,36.0,29.88,NNE,19,2.0,4.0,33,0.00,,---,0.00,VWS V14.01,2013-09-30 08:42:00,
2013-09-30 01:47:00,65.4,36.3,29.88,NNE,18,1.0,4.0,34,0.00,,---,0.00,VWS V14.01,2013-09-30 08:47:00,
2013-09-30 01:52:00,65.3,36.2,29.88,NNE,18,2.0,4.0,34,0.00,,---,0.00,VWS V14.01,2013-09-30 08:52:00,
2013-09-30 01:57:00,65.3,36.2,29.88,North,11,3.0,5.0,34,0.00,,---,0.00,VWS V14.01,2013-09-30 08:57:00,
2013-09-30 02:02:00,65.3,36.2,29.88,NNE,16,4.0,5.0,34,0.00,,---,0.00,VWS V14.01,2013-09-30 09:02:00,
2013-09-30 02:07:00,65.2,36.2,29.88,NNE,27,3.0,5.0,34,0.00,,---,0.00,VWS V14.01,2013-09-30 09:07:00,
2013-09-30 02:12:00,65.4,36.3,29.88,North,7,2.0,5.0,34,0.00,,---,0.00,VWS V14.01,2013-09-30 09:12:00,
2013-09-30 02:17:00,65.4,36.3,29.88,NNE,14,2.0,5.0,34,0.00,,---,0.00,VWS V14.01,2013-09-30 09:17:00,
2013-09-30 02:22:00,65.2,36.2,29.88,NNE,27,2.0,5.0,34,0.00,,---,0.00,VWS V14.01,2013-09-30 09:22:00,
2013-09-30 02:27:00,64.8,36.5,29.88,NNE,16,2.0,5.0,35,0.00,,---,0.00,VWS V14.01,2013-09-30 09:27:00,
2013-09-30 02:32:00,64.8,36.5,29.88,NNE,18,2.0,3.0,35,0.00,,---,0.00,VWS V14.01,2013-09-30 09:32:00,
2013-09-30 02:37:00,64.8,36.5,29.87,NNE,16,2.0,4.0,35,0.00,,---,0.00,VWS V14.01,2013-09-30 09:37:00,
2013-09-30 02:42:00,64.8,35.8,29.87,NNE,15,3.0,4.0,34,0.00,,---,0.00,VWS V14.01,2013-09-30 09:42:00,
2013-09-30 02:48:00,64.9,35.9,29.87,NNE,22,2.0,5.0,34,0.00,,---,0.00,VWS V14.01,2013-09-30 09:48:00,
2013-09-30 02:53:00,64.9,35.9,29.87,NNE,29,1.0,5.0,34,0.00,,---,0.00,VWS V14.01,2013-09-30 09:53:00,
2013-09-30 02:58:00,64.7,36.4,29.87,NNE,19,2.0,5.0,35,0.00,,---,0.00,VWS V14.01,2013-09-30 09:58:00,
2013-09-30 03:03:00,64.6,36.3,29.87,North,9,2.0,2.0,35,0.00,,---,0.00,VWS V14.01,2013-09-30 10:03:00,
2013-09-30 03:08:00,64.4,36.2,29.87,NNE,14,1.0,3.0,35,0.00,,---,0.00,VWS V14.01,2013-09-30 10:08:00,
2013-09-30 03:13:00,64.0,36.5,29.87,NNE,22,1.0,3.0,36,0.00,,---,0.00,VWS V14.01,2013-09-30 10:13:00,
2013-09-30 03:18:00,63.5,36.1,29.87,NE,39,1.0,3.0,36,0.00,,---,0.00,VWS V14.01,2013-09-30 10:18:00,
2013-09-30 03:23:00,62.6,36.0,29.87,NE,44,1.0,3.0,37,0.00,,---,0.00,VWS V14.01,2013-09-30 10:23:00,
2013-09-30 03:28:00,61.5,35.7,29.87,NE,42,2.0,4.0,38,0.00,,---,0.00,VWS V14.01,2013-09-30 10:28:00,
2013-09-30 03:33:00,60.5,36.1,29.87,NE,53,2.0,4.0,40,0.00,,---,0.00,VWS V14.01,2013-09-30 10:33:00,
2013-09-30 03:38:00,60.0,35.6,29.87,NE,52,3.0,4.0,40,0.00,,---,0.00,VWS V14.01,2013-09-30 10:38:00,
2013-09-30 03:43:00,59.9,36.2,29.87,NE,41,2.0,4.0,41,0.00,,---,0.00,VWS V14.01,2013-09-30 10:43:00,
2013-09-30 03:48:00,59.7,36.0,29.87,NNE,12,4.0,4.0,41,0.00,,---,0.00,VWS V14.01,2013-09-30 10:48:00,
2013-09-30 03:53:00,59.6,35.9,29.87,NNE,27,5.0,6.0,41,0.00,,---,0.00,VWS V14.01,2013-09-30 10:53:00,
2013-09-30 03:58:00,60.0,35.6,29.87,NNE,14,3.0,6.0,40,0.00,,---,0.00,VWS V14.01,2013-09-30 10:58:00,
2013-09-30 04:03:00,60.5,35.4,29.87,NNE,23,2.0,6.0,39,0.00,,---,0.00,VWS V14.01,2013-09-30 11:03:00,
2013-09-30 04:08:00,61.3,35.5,29.87,NNE,18,2.0,6.0,38,0.00,,---,0.00,VWS V14.01,2013-09-30 11:08:00,
2013-09-30 04:13:00,61.9,36.0,29.87,NNE,22,3.0,6.0,38,0.00,,---,0.00,VWS V14.01,2013-09-30 11:13:00,
2013-09-30 04:19:00,62.4,35.8,29.87,NNE,32,3.0,6.0,37,0.00,,---,0.00,VWS V14.01,2013-09-30 11:19:00,
2013-09-30 04:24:00,62.7,36.1,29.86,NNE,13,4.0,6.0,37,0.00,,---,0.00,VWS V14.01,2013-09-30 11:24:00,
2013-09-30 04:29:00,62.8,35.5,29.86,NNE,30,2.0,6.0,36,0.00,,---,0.00,VWS V14.01,2013-09-30 11:29:00,
2013-09-30 04:34:00,62.6,36.0,29.86,NNE,22,2.0,4.0,37,0.00,,---,0.00,VWS V14.01,2013-09-30 11:34:00,
2013-09-30 04:39:00,62.3,35.7,29.87,North,9,3.0,4.0,37,0.00,,---,0.00,VWS V14.01,2013-09-30 11:39:00,
2013-09-30 04:44:00,62.3,35.7,29.87,NNE,15,2.0,4.0,37,0.00,,---,0.00,VWS V14.01,2013-09-30 11:44:00,
2013-09-30 04:49:00,62.4,35.8,29.86,NNE,22,3.0,4.0,37,0.00,,---,0.00,VWS V14.01,2013-09-30 11:49:00,
2013-09-30 04:54:00,62.6,35.3,29.87,NE,34,3.0,4.0,36,0.00,,---,0.00,VWS V14.01,2013-09-30 11:54:00,
2013-09-30 04:59:00,62.8,35.5,29.87,North,4,2.0,5.0,36,0.00,,---,0.00,VWS V14.01,2013-09-30 11:59:00,
2013-09-30 05:04:00,62.8,35.5,29.87,NNE,30,2.0,6.0,36,0.00,,---,0.00,VWS V14.01,2013-09-30 12:04:00,
2013-09-30 05:09:00,63.0,35.7,29.87,NNE,24,2.0,6.0,36,0.00,,---,0.00,VWS V14.01,2013-09-30 12:09:00,
2013-09-30 05:14:00,62.9,35.6,29.87,NNE,30,3.0,6.0,36,0.00,,---,0.00,VWS V14.01,2013-09-30 12:14:00,
2013-09-30 05:19:00,62.7,35.4,29.87,NE,37,2.0,6.0,36,0.00,,---,0.00,VWS V14.01,2013-09-30 12:19:00,
2013-09-30 05:24:00,62.2,35.6,29.87,NNE,30,2.0,6.0,37,0.00,,---,0.00,VWS V14.01,2013-09-30 12:24:00,
2013-09-30 05:29:00,61.7,35.2,29.87,NE,43,0.0,6.0,37,0.00,,---,0.00,VWS V14.01,2013-09-30 12:29:00,
2013-09-30 05:34:00,61.3,35.5,29.87,NE,42,0.0,0.0,38,0.00,,---,0.00,VWS V14.01,2013-09-30 12:34:00,
2013-09-30 05:39:00,60.8,35.7,29.87,NE,43,0.0,0.0,39,0.00,,---,0.00,VWS V14.01,2013-09-30 12:39:00,
2013-09-30 05:45:00,59.6,35.9,29.87,NE,43,0.0,0.0,41,0.00,,---,0.00,VWS V14.01,2013-09-30 12:45:00,
2013-09-30 05:50:00,58.5,35.5,29.87,NE,43,0.0,0.0,42,0.00,,---,0.00,VWS V14.01,2013-09-30 12:50:00,
2013-09-30 05:55:00,57.5,35.8,29.88,NE,44,0.0,0.0,44,0.00,,---,0.00,VWS V14.01,2013-09-30 12:55:00,
2013-09-30 06:00:00,56.9,35.8,29.87,NE,44,0.0,1.0,45,0.00,,---,0.00,VWS V14.01,2013-09-30 13:00:00,
2013-09-30 06:05:00,56.5,35.4,29.88,East,82,0.0,0.0,45,0.00,,---,0.00,VWS V14.01,2013-09-30 13:05:00,
2013-09-30 06:10:00,56.1,35.6,29.88,ENE,68,1.0,2.0,46,0.00,,---,0.00,VWS V14.01,2013-09-30 13:10:00,
2013-09-30 06:15:00,56.1,35.6,29.88,ENE,61,1.0,3.0,46,0.00,,---,0.00,VWS V14.01,2013-09-30 13:15:00,
2013-09-30 06:20:00,56.3,35.8,29.88,ENE,70,1.0,3.0,46,0.00,,---,0.00,VWS V14.01,2013-09-30 13:20:00,
2013-09-30 06:25:00,56.6,35.5,29.88,ENE,70,0.0,3.0,45,0.00,,---,0.00,VWS V14.01,2013-09-30 13:25:00,
2013-09-30 06:30:00,56.6,36.1,29.88,ENE,63,0.0,1.0,46,0.00,,---,0.00,VWS V14.01,2013-09-30 13:30:00,
2013-09-30 06:35:00,56.6,36.1,29.88,NE,51,0.0,2.0,46,0.00,,---,0.00,VWS V14.01,2013-09-30 13:35:00,
2013-09-30 06:40:00,56.4,35.9,29.88,NE,51,0.0,2.0,46,0.00,,---,0.00,VWS V14.01,2013-09-30 13:40:00,
2013-09-30 06:45:00,56.3,35.8,29.88,NE,46,0.0,2.0,46,0.00,,---,0.00,VWS V14.01,2013-09-30 13:45:00,
2013-09-30 06:50:00,56.9,36.3,29.88,NE,43,0.0,2.0,46,0.00,,---,0.00,VWS V14.01,2013-09-30 13:50:00,
2013-09-30 06:55:00,57.7,36.5,29.88,NE,42,0.0,2.0,45,0.00,,---,0.00,VWS V14.01,2013-09-30 13:55:00,
2013-09-30 07:00:00,58.2,37.0,29.88,NE,42,0.0,0.0,45,0.00,,---,0.00,VWS V14.01,2013-09-30 14:00:00,
2013-09-30 07:05:00,58.6,37.3,29.89,NE,44,0.0,1.0,45,0.00,,---,0.00,VWS V14.01,2013-09-30 14:05:00,
2013-09-30 07:11:00,59.0,37.1,29.88,NE,44,2.0,4.0,44,0.00,,---,0.00,VWS V14.01,2013-09-30 14:11:00,
2013-09-30 07:16:00,59.5,37.0,29.89,NE,38,0.0,5.0,43,0.00,,---,0.00,VWS V14.01,2013-09-30 14:16:00,
2013-09-30 07:21:00,60.6,37.4,29.89,NNE,30,1.0,5.0,42,0.00,,---,0.00,VWS V14.01,2013-09-30 14:21:00,
2013-09-30 07:26:00,61.3,37.4,29.89,NE,47,1.0,5.0,41,0.00,,---,0.00,VWS V14.01,2013-09-30 14:26:00,
2013-09-30 07:31:00,62.0,38.0,29.89,NNE,30,0.0,1.0,41,0.00,,---,0.00,VWS V14.01,2013-09-30 14:31:00,
2013-09-30 07:36:00,63.2,38.5,29.89,NNE,30,0.0,1.0,40,0.00,,---,0.00,VWS V14.01,2013-09-30 14:36:00,
2013-09-30 07:41:00,64.3,38.2,29.89,NNE,33,0.0,1.0,38,0.00,,---,0.00,VWS V14.01,2013-09-30 14:41:00,
2013-09-30 07:46:00,64.9,38.7,29.89,NNE,16,0.0,1.0,38,0.00,,---,0.00,VWS V14.01,2013-09-30 14:46:00,
2013-09-30 07:51:00,65.9,38.9,29.89,NNE,16,0.0,1.0,37,0.00,,---,0.00,VWS V14.01,2013-09-30 14:51:00,
2013-09-30 07:56:00,67.5,39.6,29.89,NNE,16,0.0,1.0,36,0.00,,---,0.00,VWS V14.01,2013-09-30 14:56:00,
2013-09-30 08:01:00,68.7,40.0,29.89,NE,49,0.0,0.0,35,0.00,,---,0.00,VWS V14.01,2013-09-30 15:01:00,
2013-09-30 08:06:00,69.5,39.2,29.89,NNE,16,0.0,1.0,33,0.00,,---,0.00,VWS V14.01,2013-09-30 15:06:00,
2013-09-30 08:11:00,70.3,39.9,29.89,NNE,18,0.0,1.0,33,0.00,,---,0.00,VWS V14.01,2013-09-30 15:11:00,
2013-09-30 08:16:00,71.6,39.4,29.89,NNE,20,0.0,1.0,31,0.00,,---,0.00,VWS V14.01,2013-09-30 15:16:00,
2013-09-30 08:21:00,71.9,38.8,29.89,NNE,33,0.0,2.0,30,0.00,,---,0.00,VWS V14.01,2013-09-30 15:21:00,
2013-09-30 08:27:00,72.1,38.1,29.89,East,95,0.0,2.0,29,0.00,,---,0.00,VWS V14.01,2013-09-30 15:27:00,
2013-09-30 08:32:00,73.1,39.0,29.90,NE,46,0.0,1.0,29,0.00,,---,0.00,VWS V14.01,2013-09-30 15:32:00,
2013-09-30 08:37:00,74.4,39.2,29.90,NE,46,0.0,1.0,28,0.00,,---,0.00,VWS V14.01,2013-09-30 15:37:00,
2013-09-30 08:42:00,75.2,39.0,29.90,NE,46,0.0,1.0,27,0.00,,---,0.00,VWS V14.01,2013-09-30 15:42:00,
2013-09-30 08:47:00,75.8,39.5,29.89,NE,46,0.0,1.0,27,0.00,,---,0.00,VWS V14.01,2013-09-30 15:47:00,
2013-09-30 08:52:00,76.9,39.4,29.90,NE,46,0.0,1.0,26,0.00,,---,0.00,VWS V14.01,2013-09-30 15:52:00,
2013-09-30 08:57:00,78.0,39.4,29.90,SW,228,0.0,2.0,25,0.00,,---,0.00,VWS V14.01,2013-09-30 15:57:00,
2013-09-30 09:02:00,78.3,39.6,29.89,SE,139,0.0,2.0,25,0.00,,---,0.00,VWS V14.01,2013-09-30 16:02:00,
2013-09-30 09:07:00,78.5,38.7,29.90,SSW,208,1.0,2.0,24,0.00,,---,0.00,VWS V14.01,2013-09-30 16:07:00,
2013-09-30 09:12:00,78.6,38.8,29.89,SW,225,0.0,2.0,24,0.00,,---,0.00,VWS V14.01,2013-09-30 16:12:00,
2013-09-30 09:17:00,79.0,38.1,29.90,South,172,2.0,5.0,23,0.00,,---,0.00,VWS V14.01,2013-09-30 16:17:00,
2013-09-30 09:22:00,78.3,37.5,29.89,SW,219,3.0,5.0,23,0.00,,---,0.00,VWS V14.01,2013-09-30 16:22:00,
2013-09-30 09:27:00,78.0,38.3,29.89,SSE,150,2.0,5.0,24,0.00,,---,0.00,VWS V14.01,2013-09-30 16:27:00,
2013-09-30 09:33:00,78.9,39.1,29.89,SW,219,1.0,1.0,24,0.00,,---,0.00,VWS V14.01,2013-09-30 16:33:00,
2013-09-30 09:38:00,79.6,38.6,29.89,SW,236,0.0,3.0,23,0.00,,---,0.00,VWS V14.01,2013-09-30 16:38:00,
2013-09-30 09:43:00,80.1,39.0,29.89,ESE,120,1.0,3.0,23,0.00,,---,0.00,VWS V14.01,2013-09-30 16:43:00,
2013-09-30 09:48:00,80.7,39.5,29.89,SSW,212,2.0,3.0,23,0.00,,---,0.00,VWS V14.01,2013-09-30 16:48:00,
2013-09-30 09:53:00,81.1,37.5,29.89,South,169,0.0,3.0,21,0.00,,---,0.00,VWS V14.01,2013-09-30 16:53:00,
2013-09-30 09:58:00,81.3,37.7,29.89,ENE,75,2.0,5.0,21,0.00,,---,0.00,VWS V14.01,2013-09-30 16:58:00,
2013-09-30 10:03:00,81.7,38.0,29.89,South,184,3.0,4.0,21,0.00,,---,0.00,VWS V14.01,2013-09-30 17:03:00,
2013-09-30 10:08:00,82.0,37.0,29.88,WSW,252,0.0,4.0,20,0.00,,---,0.00,VWS V14.01,2013-09-30 17:08:00,
2013-09-30 10:13:00,82.8,36.4,29.88,NNE,30,0.0,4.0,19,0.00,,---,0.00,VWS V14.01,2013-09-30 17:13:00,
2013-09-30 10:18:00,84.1,37.4,29.88,NE,44,0.0,4.0,19,0.00,,---,0.00,VWS V14.01,2013-09-30 17:18:00,
2013-09-30 10:23:00,85.2,37.0,29.88,SSW,210,2.0,4.0,18,0.00,,---,0.00,VWS V14.01,2013-09-30 17:23:00,
2013-09-30 10:28:00,85.2,37.0,29.88,SW,221,3.0,4.0,18,0.00,,---,0.00,VWS V14.01,2013-09-30 17:28:00,
2013-09-30 10:33:00,84.8,36.6,29.88,SW,214,2.0,3.0,18,0.00,,---,0.00,VWS V14.01,2013-09-30 17:33:00,
2013-09-30 10:39:00,84.8,36.6,29.88,West,278,1.0,5.0,18,0.00,,---,0.00,VWS V14.01,2013-09-30 17:39:00,
2013-09-30 10:44:00,85.0,36.8,29.88,SSW,205,2.0,5.0,18,0.00,,---,0.00,VWS V14.01,2013-09-30 17:44:00,
2013-09-30 10:49:00,85.1,35.4,29.88,SE,129,1.0,6.0,17,0.00,,---,0.00,VWS V14.01,2013-09-30 17:49:00,
2013-09-30 10:54:00,85.0,36.8,29.87,ENE,68,0.0,6.0,18,0.00,,---,0.00,VWS V14.01,2013-09-30 17:54:00,
2013-09-30 10:59:00,85.7,35.9,29.87,WSW,256,3.0,6.0,17,0.00,,---,0.00,VWS V14.01,2013-09-30 17:59:00,
2013-09-30 11:04:00,85.8,36.0,29.87,West,263,0.0,2.0,17,0.00,,---,0.00,VWS V14.01,2013-09-30 18:04:00,
2013-09-30 11:09:00,86.8,38.3,29.87,SE,136,1.0,4.0,18,0.00,,---,0.00,VWS V14.01,2013-09-30 18:09:00,
2013-09-30 11:14:00,87.1,37.0,29.87,ESE,110,1.0,6.0,17,0.00,,---,0.00,VWS V14.01,2013-09-30 18:14:00,
2013-09-30 11:19:00,87.0,37.0,29.87,NNW,340,1.0,8.0,17,0.00,,---,0.00,VWS V14.01,2013-09-30 18:19:00,
2013-09-30 11:24:00,88.3,36.5,29.87,WSW,248,1.0,8.0,16,0.00,,---,0.00,VWS V14.01,2013-09-30 18:24:00,
2013-09-30 11:29:00,87.5,35.8,29.86,WSW,252,3.0,8.0,16,0.00,,---,0.00,VWS V14.01,2013-09-30 18:29:00,
2013-09-30 11:34:00,87.0,35.4,29.86,West,265,2.0,7.0,16,0.00,,---,0.00,VWS V14.01,2013-09-30 18:34:00,
2013-09-30 11:39:00,86.5,35.0,29.86,SE,133,0.0,8.0,16,0.00,,---,0.00,VWS V14.01,2013-09-30 18:39:00,
2013-09-30 11:45:00,86.4,35.0,29.86,ESE,103,1.0,8.0,16,0.00,,---,0.00,VWS V14.01,2013-09-30 18:45:00,
2013-09-30 11:50:00,87.2,35.6,29.86,West,271,3.0,8.0,16,0.00,,---,0.00,VWS V14.01,2013-09-30 18:50:00,
2013-09-30 11:55:00,87.3,34.0,29.85,NNE,17,0.0,8.0,15,0.00,,---,0.00,VWS V14.01,2013-09-30 18:55:00,
2013-09-30 12:00:00,87.7,34.4,29.85,South,189,4.0,8.0,15,0.00,,---,0.00,VWS V14.01,2013-09-30 19:00:00,
2013-09-30 12:05:00,87.4,34.1,29.85,SW,235,1.0,10.0,15,0.00,,---,0.00,VWS V14.01,2013-09-30 19:05:00,
2013-09-30 12:10:00,87.6,34.3,29.84,WSW,254,5.0,10.0,15,0.00,,---,0.00,VWS V14.01,2013-09-30 19:10:00,
2013-09-30 12:15:00,88.1,34.7,29.84,WSW,248,4.0,10.0,15,0.00,,---,0.00,VWS V14.01,2013-09-30 19:15:00,
2013-09-30 12:20:00,87.7,32.7,29.84,North,352,2.0,10.0,14,0.00,,---,0.00,VWS V14.01,2013-09-30 19:20:00,
2013-09-30 12:25:00,87.8,32.7,29.83,West,265,2.0,10.0,14,0.00,,---,0.00,VWS V14.01,2013-09-30 19:25:00,
2013-09-30 12:30:00,88.6,33.4,29.83,West,274,5.0,5.0,14,0.00,,---,0.00,VWS V14.01,2013-09-30 19:30:00,
2013-09-30 12:35:00,89.2,33.8,29.83,West,262,0.0,7.0,14,0.00,,---,0.00,VWS V14.01,2013-09-30 19:35:00,
2013-09-30 12:40:00,88.7,33.4,29.83,NW,319,3.0,7.0,14,0.00,,---,0.00,VWS V14.01,2013-09-30 19:40:00,
2013-09-30 12:45:00,89.2,33.8,29.82,West,273,4.0,7.0,14,0.00,,---,0.00,VWS V14.01,2013-09-30 19:45:00,
2013-09-30 12:51:00,89.0,33.7,29.82,WSW,243,5.0,11.0,14,0.00,,---,0.00,VWS V14.01,2013-09-30 19:51:00,
2013-09-30 12:56:00,88.0,32.9,29.82,SE,124,1.0,11.0,14,0.00,,---,0.00,VWS V14.01,2013-09-30 19:56:00,
2013-09-30 13:01:00,88.5,33.3,29.82,WNW,291,4.0,12.0,14,0.00,,---,0.00,VWS V14.01,2013-09-30 20:01:00,
2013-09-30 13:06:00,88.4,33.2,29.81,NW,308,0.0,12.0,14,0.00,,---,0.00,VWS V14.01,2013-09-30 20:06:00,
2013-09-30 13:11:00,88.4,33.2,29.81,SE,125,1.0,12.0,14,0.00,,---,0.00,VWS V14.01,2013-09-30 20:11:00,
2013-09-30 13:16:00,89.0,33.7,29.81,WSW,246,3.0,12.0,14,0.00,,---,0.00,VWS V14.01,2013-09-30 20:16:00,
2013-09-30 13:21:00,88.9,33.6,29.81,WSW,256,8.0,12.0,14,0.00,,---,0.00,VWS V14.01,2013-09-30 20:21:00,
2013-09-30 13:26:00,88.5,33.3,29.81,West,275,3.0,12.0,14,0.00,,---,0.00,VWS V14.01,2013-09-30 20:26:00,
2013-09-30 13:31:00,88.3,33.1,29.80,SSW,194,2.0,4.0,14,0.00,,---,0.00,VWS V14.01,2013-09-30 20:31:00,
2013-09-30 13:36:00,88.4,33.2,29.80,SSW,212,2.0,6.0,14,0.00,,---,0.00,VWS V14.01,2013-09-30 20:36:00,
2013-09-30 13:41:00,88.4,31.4,29.80,West,260,7.0,10.0,13,0.00,,---,0.00,VWS V14.01,2013-09-30 20:41:00,
2013-09-30 13:46:00,88.9,31.8,29.80,WNW,291,5.0,10.0,13,0.00,,---,0.00,VWS V14.01,2013-09-30 20:46:00,
2013-09-30 13:51:00,89.1,29.9,29.80,North,350,3.0,10.0,12,0.00,,---,0.00,VWS V14.01,2013-09-30 20:51:00,
2013-09-30 13:57:00,88.6,31.5,29.79,WSW,246,4.0,10.0,13,0.00,,---,0.00,VWS V14.01,2013-09-30 20:57:00,
2013-09-30 14:02:00,89.2,32.0,29.79,WSW,239,5.0,5.0,13,0.00,,---,0.00,VWS V14.01,2013-09-30 21:02:00,
2013-09-30 14:07:00,89.2,32.0,29.79,WSW,253,3.0,7.0,13,0.00,,---,0.00,VWS V14.01,2013-09-30 21:07:00,
2013-09-30 14:12:00,89.2,32.0,29.79,WSW,252,4.0,9.0,13,0.00,,---,0.00,VWS V14.01,2013-09-30 21:12:00,
2013-09-30 14:17:00,89.2,30.0,29.79,NE,43,1.0,11.0,12,0.00,,---,0.00,VWS V14.01,2013-09-30 21:17:00,
2013-09-30 14:22:00,89.6,30.3,29.79,WSW,250,0.0,11.0,12,0.00,,---,0.00,VWS V14.01,2013-09-30 21:22:00,
2013-09-30 14:27:00,90.6,31.1,29.78,WSW,248,5.0,11.0,12,0.00,,---,0.00,VWS V14.01,2013-09-30 21:27:00,
2013-09-30 14:32:00,90.1,30.7,29.78,WSW,256,8.0,12.0,12,0.00,,---,0.00,VWS V14.01,2013-09-30 21:32:00,
2013-09-30 14:37:00,89.7,28.3,29.78,WSW,252,4.0,12.0,11,0.00,,---,0.00,VWS V14.01,2013-09-30 21:37:00,
2013-09-30 14:42:00,89.3,30.1,29.78,South,176,6.0,12.0,12,0.00,,---,0.00,VWS V14.01,2013-09-30 21:42:00,
2013-09-30 14:47:00,89.5,30.2,29.78,SW,221,6.0,12.0,12,0.00,,---,0.00,VWS V14.01,2013-09-30 21:47:00,
2013-09-30 14:53:00,89.0,29.9,29.78,SSW,210,3.0,12.0,12,0.00,,---,0.00,VWS V14.01,2013-09-30 21:53:00,
2013-09-30 14:58:00,89.2,30.0,29.78,SSW,198,3.0,12.0,12,0.00,,---,0.00,VWS V14.01,2013-09-30 21:58:00,
2013-09-30 15:03:00,89.2,27.9,29.78,WSW,257,2.0,11.0,11,0.00,,---,0.00,VWS V14.01,2013-09-30 22:03:00,
2013-09-30 15:08:00,89.4,28.0,29.78,SSE,164,2.0,11.0,11,0.00,,---,0.00,VWS V14.01,2013-09-30 22:08:00,
2013-09-30 15:13:00,89.9,28.4,29.77,WSW,248,5.0,11.0,11,0.00,,---,0.00,VWS V14.01,2013-09-30 22:13:00,
2013-09-30 15:18:00,90.0,28.5,29.77,South,169,2.0,11.0,11,0.00,,---,0.00,VWS V14.01,2013-09-30 22:18:00,
2013-09-30 15:23:00,90.3,28.7,29.77,West,278,4.0,11.0,11,0.00,,---,0.00,VWS V14.01,2013-09-30 22:23:00,
2013-09-30 15:28:00,90.3,26.4,29.77,WSW,248,2.0,11.0,10,0.00,,---,0.00,VWS V14.01,2013-09-30 22:28:00,
2013-09-30 15:33:00,90.5,26.6,29.77,West,277,4.0,6.0,10,0.00,,---,0.00,VWS V14.01,2013-09-30 22:33:00,
2013-09-30 15:38:00,90.0,26.2,29.77,West,265,6.0,12.0,10,0.00,,---,0.00,VWS V14.01,2013-09-30 22:38:00,
2013-09-30 15:43:00,89.7,28.3,29.77,WNW,283,2.0,12.0,11,0.00,,---,0.00,VWS V14.01,2013-09-30 22:43:00,
2013-09-30 15:49:00,89.6,25.9,29.77,SW,235,6.0,12.0,10,0.00,,---,0.00,VWS V14.01,2013-09-30 22:49:00,
2013-09-30 15:54:00,89.4,25.7,29.77,West,267,5.0,12.0,10,0.00,,---,0.00,VWS V14.01,2013-09-30 22:54:00,
2013-09-30 15:59:00,88.9,22.8,29.77,WSW,240,6.0,12.0,9,0.00,,---,0.00,VWS V14.01,2013-09-30 22:59:00,
2013-09-30 16:04:00,89.1,25.5,29.76,WSW,256,1.0,7.0,10,0.00,,---,0.00,VWS V14.01,2013-09-30 23:04:00,
2013-09-30 16:09:00,89.6,23.4,29.76,NW,322,2.0,7.0,9,0.00,,---,0.00,VWS V14.01,2013-09-30 23:09:00,
2013-09-30 16:14:00,89.8,20.7,29.76,West,264,0.0,7.0,8,0.00,,---,0.00,VWS V14.01,2013-09-30 23:14:00,
2013-09-30 16:19:00,89.7,20.6,29.76,SW,226,6.0,10.0,8,0.00,,---,0.00,VWS V14.01,2013-09-30 23:19:00,
2013-09-30 16:24:00,89.2,20.3,29.76,WSW,252,2.0,10.0,8,0.00,,---,0.00,VWS V14.01,2013-09-30 23:24:00,
2013-09-30 16:29:00,89.2,20.3,29.76,WSW,240,7.0,10.0,8,0.00,,---,0.00,VWS V14.01,2013-09-30 23:29:00,
2013-09-30 16:34:00,89.3,20.4,29.76,WNW,290,4.0,6.0,8,0.00,,---,0.00,VWS V14.01,2013-09-30 23:34:00,
2013-09-30 16:39:00,89.1,20.2,29.76,West,263,3.0,8.0,8,0.00,,---,0.00,VWS V14.01,2013-09-30 23:39:00,
2013-09-30 16:44:00,89.1,20.2,29.76,NNW,340,2.0,8.0,8,0.00,,---,0.00,VWS V14.01,2013-09-30 23:44:00,
2013-09-30 16:50:00,89.3,20.4,29.76,SW,230,3.0,8.0,8,0.00,,---,0.00,VWS V14.01,2013-09-30 23:50:00,
2013-09-30 16:55:00,89.0,20.1,29.76,WSW,252,1.0,8.0,8,0.00,,---,0.00,VWS V14.01,2013-09-30 23:55:00,
2013-09-30 17:00:00,88.8,20.0,29.76,SW,219,3.0,8.0,8,0.00,,---,0.00,VWS V14.01,2013-10-01 00:00:00,
2013-09-30 17:05:00,88.8,20.0,29.76,WSW,238,3.0,4.0,8,0.00,,---,0.00,VWS V14.01,2013-10-01 00:05:00,
2013-09-30 17:10:00,88.7,19.9,29.76,SW,236,2.0,6.0,8,0.00,,---,0.00,VWS V14.01,2013-10-01 00:10:00,
2013-09-30 17:15:00,88.4,19.7,29.76,West,266,2.0,6.0,8,0.00,,---,0.00,VWS V14.01,2013-10-01 00:15:00,
2013-09-30 17:20:00,88.4,22.5,29.76,West,270,1.0,6.0,9,0.00,,---,0.00,VWS V14.01,2013-10-01 00:20:00,
2013-09-30 17:25:00,88.5,19.8,29.76,WSW,252,3.0,6.0,8,0.00,,---,0.00,VWS V14.01,2013-10-01 00:25:00,
2013-09-30 17:30:00,88.1,22.2,29.76,WSW,250,3.0,3.0,9,0.00,,---,0.00,VWS V14.01,2013-10-01 00:30:00,
2013-09-30 17:35:00,87.8,22.0,29.76,WSW,247,1.0,4.0,9,0.00,,---,0.00,VWS V14.01,2013-10-01 00:35:00,
2013-09-30 17:40:00,87.9,22.1,29.76,West,278,2.0,4.0,9,0.00,,---,0.00,VWS V14.01,2013-10-01 00:40:00,
2013-09-30 17:46:00,87.2,21.6,29.76,West,266,3.0,8.0,9,0.00,,---,0.00,VWS V14.01,2013-10-01 00:46:00,
2013-09-30 17:51:00,86.4,23.5,29.75,West,269,2.0,8.0,10,0.00,,---,0.00,VWS V14.01,2013-10-01 00:51:00,
2013-09-30 17:56:00,85.4,22.7,29.76,West,267,2.0,8.0,10,0.00,,---,0.00,VWS V14.01,2013-10-01 00:56:00,
2013-09-30 18:01:00,84.4,24.2,29.76,West,273,2.0,2.0,11,0.00,,---,0.00,VWS V14.01,2013-10-01 01:01:00,
2013-09-30 18:06:00,83.7,23.7,29.76,West,263,2.0,4.0,11,0.00,,---,0.00,VWS V14.01,2013-10-01 01:06:00,
2013-09-30 18:11:00,83.1,25.3,29.76,West,260,1.0,4.0,12,0.00,,---,0.00,VWS V14.01,2013-10-01 01:11:00,
2013-09-30 18:16:00,82.5,26.8,29.76,WNW,283,3.0,4.0,13,0.00,,---,0.00,VWS V14.01,2013-10-01 01:16:00,
2013-09-30 18:21:00,82.0,26.4,29.76,West,264,0.0,4.0,13,0.00,,---,0.00,VWS V14.01,2013-10-01 01:21:00,
2013-09-30 18:26:00,81.4,25.9,29.76,West,266,0.0,4.0,13,0.00,,---,0.00,VWS V14.01,2013-10-01 01:26:00,
2013-09-30 18:31:00,80.5,27.0,29.76,West,266,0.0,0.0,14,0.00,,---,0.00,VWS V14.01,2013-10-01 01:31:00,
2013-09-30 18:36:00,79.7,26.3,29.76,West,266,0.0,1.0,14,0.00,,---,0.00,VWS V14.01,2013-10-01 01:36:00,
2013-09-30 18:41:00,79.1,25.9,29.76,West,267,0.0,1.0,14,0.00,,---,0.00,VWS V14.01,2013-10-01 01:41:00,
2013-09-30 18:47:00,78.8,25.6,29.76,NNW,338,0.0,1.0,14,0.00,,---,0.00,VWS V14.01,2013-10-01 01:47:00,
2013-09-30 18:52:00,78.4,27.0,29.77,NNW,341,0.0,1.0,15,0.00,,---,0.00,VWS V14.01,2013-10-01 01:52:00,
2013-09-30 18:57:00,78.1,26.7,29.77,NNE,16,0.0,1.0,15,0.00,,---,0.00,VWS V14.01,2013-10-01 01:57:00,
2013-09-30 19:02:00,77.9,28.1,29.76,NNE,13,0.0,0.0,16,0.00,,---,0.00,VWS V14.01,2013-10-01 02:02:00,
2013-09-30 19:07:00,77.7,28.0,29.77,NE,34,0.0,2.0,16,0.00,,---,0.00,VWS V14.01,2013-10-01 02:07:00,
2013-09-30 19:12:00,77.3,26.1,29.77,NE,52,3.0,3.0,15,0.00,,---,0.00,VWS V14.01,2013-10-01 02:12:00,
2013-09-30 19:17:00,76.7,27.2,29.77,ENE,73,2.0,4.0,16,0.00,,---,0.00,VWS V14.01,2013-10-01 02:17:00,
2013-09-30 19:22:00,76.5,27.0,29.77,ENE,72,0.0,4.0,16,0.00,,---,0.00,VWS V14.01,2013-10-01 02:22:00,
2013-09-30 19:27:00,75.9,28.0,29.77,NE,49,0.0,4.0,17,0.00,,---,0.00,VWS V14.01,2013-10-01 02:27:00,
2013-09-30 19:32:00,75.6,27.8,29.78,NE,41,2.0,3.0,17,0.00,,---,0.00,VWS V14.01,2013-10-01 02:32:00,
2013-09-30 19:37:00,75.5,27.7,29.78,NE,34,2.0,3.0,17,0.00,,---,0.00,VWS V14.01,2013-10-01 02:37:00,
2013-09-30 19:42:00,75.4,27.6,29.78,NE,43,2.0,4.0,17,0.00,,---,0.00,VWS V14.01,2013-10-01 02:42:00,
2013-09-30 19:47:00,75.5,27.7,29.78,NE,39,5.0,5.0,17,0.00,,---,0.00,VWS V14.01,2013-10-01 02:47:00,
2013-09-30 19:53:00,75.5,27.7,29.79,NE,37,1.0,5.0,17,0.00,,---,0.00,VWS V14.01,2013-10-01 02:53:00,
2013-09-30 19:58:00,75.1,27.4,29.79,NE,40,3.0,5.0,17,0.00,,---,0.00,VWS V14.01,2013-10-01 02:58:00,
2013-09-30 20:03:00,75.1,27.4,29.79,NE,35,2.0,4.0,17,0.00,,---,0.00,VWS V14.01,2013-10-01 03:03:00,
2013-09-30 20:08:00,75.1,27.4,29.79,NNE,13,2.0,5.0,17,0.00,,---,0.00,VWS V14.01,2013-10-01 03:08:00,
2013-09-30 20:13:00,74.8,27.1,29.79,NNE,27,3.0,5.0,17,0.00,,---,0.00,VWS V14.01,2013-10-01 03:13:00,
2013-09-30 20:18:00,74.4,28.2,29.79,NE,49,2.0,5.0,18,0.00,,---,0.00,VWS V14.01,2013-10-01 03:18:00,
2013-09-30 20:23:00,74.1,27.9,29.79,NNE,29,3.0,5.0,18,0.00,,---,0.00,VWS V14.01,2013-10-01 03:23:00,
2013-09-30 20:29:00,73.9,27.8,29.79,NE,39,2.0,6.0,18,0.00,,---,0.00,VWS V14.01,2013-10-01 03:29:00,
2013-09-30 20:34:00,73.5,27.4,29.79,NNE,27,3.0,4.0,18,0.00,,---,0.00,VWS V14.01,2013-10-01 03:34:00,
2013-09-30 20:39:00,73.3,28.6,29.80,NE,42,1.0,6.0,19,0.00,,---,0.00,VWS V14.01,2013-10-01 03:39:00,
2013-09-30 20:44:00,73.1,28.4,29.80,NNE,18,2.0,6.0,19,0.00,,---,0.00,VWS V14.01,2013-10-01 03:44:00,
2013-09-30 20:49:00,72.8,28.2,29.80,NNE,23,1.0,6.0,19,0.00,,---,0.00,VWS V14.01,2013-10-01 03:49:00,
2013-09-30 20:54:00,72.7,28.1,29.80,NNE,23,2.0,6.0,19,0.00,,---,0.00,VWS V14.01,2013-10-01 03:54:00,
2013-09-30 20:59:00,72.6,28.0,29.80,NNW,340,2.0,6.0,19,0.00,,---,0.00,VWS V14.01,2013-10-01 03:59:00,
2013-09-30 21:01:00,72.4,27.9,29.80,North,355,2.0,2.0,19,0.00,,---,0.00,VWS V14.01,2013-10-01 04:01:00,
2013-09-30 21:03:00,72.3,27.8,29.80,NNE,12,3.0,3.0,19,0.00,,---,0.00,VWS V14.01,2013-10-01 04:03:00,
2013-09-30 21:08:00,72.0,27.5,29.80,NNE,12,3.0,4.0,19,0.00,,---,0.00,VWS V14.01,2013-10-01 04:08:00,
2013-09-30 21:13:00,71.7,27.3,29.80,North,8,2.0,4.0,19,0.00,,---,0.00,VWS V14.01,2013-10-01 04:13:00,
2013-09-30 21:18:00,71.7,27.3,29.80,NNE,12,2.0,5.0,19,0.00,,---,0.00,VWS V14.01,2013-10-01 04:18:00,
2013-09-30 21:23:00,71.8,27.4,29.80,NNE,29,3.0,5.0,19,0.00,,---,0.00,VWS V14.01,2013-10-01 04:23:00,
2013-09-30 21:28:00,72.0,27.5,29.80,NNE,18,2.0,5.0,19,0.00,,---,0.00,VWS V14.01,2013-10-01 04:28:00,
2013-09-30 21:34:00,72.2,27.7,29.80,NNE,32,3.0,5.0,19,0.00,,---,0.00,VWS V14.01,2013-10-01 04:34:00,
2013-09-30 21:39:00,72.0,27.5,29.80,NNE,20,2.0,6.0,19,0.00,,---,0.00,VWS V14.01,2013-10-01 04:39:00,
2013-09-30 21:44:00,71.8,27.4,29.80,NNE,23,3.0,6.0,19,0.00,,---,0.00,VWS V14.01,2013-10-01 04:44:00,
2013-09-30 21:49:00,71.6,27.2,29.80,NNE,18,2.0,6.0,19,0.00,,---,0.00,VWS V14.01,2013-10-01 04:49:00,
2013-09-30 21:54:00,71.4,27.0,29.80,NNE,18,2.0,6.0,19,0.00,,---,0.00,VWS V14.01,2013-10-01 04:54:00,
2013-09-30 21:59:00,71.1,26.8,29.80,NE,40,2.0,6.0,19,0.00,,---,0.00,VWS V14.01,2013-10-01 04:59:00,
2013-09-30 22:04:00,70.3,27.4,29.80,NE,41,3.0,4.0,20,0.00,,---,0.00,VWS V14.01,2013-10-01 05:04:00,
2013-09-30 22:09:00,69.4,26.6,29.80,NE,34,2.0,5.0,20,0.00,,---,0.00,VWS V14.01,2013-10-01 05:09:00,
2013-09-30 22:14:00,68.5,27.1,29.80,NE,44,3.0,5.0,21,0.00,,---,0.00,VWS V14.01,2013-10-01 05:14:00,
2013-09-30 22:19:00,67.5,28.4,29.80,NNE,30,4.0,5.0,23,0.00,,---,0.00,VWS V14.01,2013-10-01 05:19:00,
2013-09-30 22:24:00,66.8,27.8,29.80,NNE,26,3.0,5.0,23,0.00,,---,0.00,VWS V14.01,2013-10-01 05:24:00,
2013-09-30 22:29:00,66.7,27.8,29.80,NNE,25,3.0,5.0,23,0.00,,---,0.00,VWS V14.01,2013-10-01 05:29:00,
2013-09-30 22:34:00,66.6,27.7,29.80,NNE,23,3.0,4.0,23,0.00,,---,0.00,VWS V14.01,2013-10-01 05:34:00,
2013-09-30 22:40:00,66.4,27.5,29.80,NNE,13,2.0,4.0,23,0.00,,---,0.00,VWS V14.01,2013-10-01 05:40:00,
2013-09-30 22:45:00,66.8,27.8,29.80,NNE,30,3.0,5.0,23,0.00,,---,0.00,VWS V14.01,2013-10-01 05:45:00,
2013-09-30 22:50:00,67.1,27.0,29.80,NE,37,4.0,5.0,22,0.00,,---,0.00,VWS V14.01,2013-10-01 05:50:00,
2013-09-30 22:55:00,67.2,27.1,29.80,NNE,13,2.0,5.0,22,0.00,,---,0.00,VWS V14.01,2013-10-01 05:55:00,
2013-09-30 23:00:00,66.9,26.9,29.80,NNE,13,3.0,5.0,22,0.00,,---,0.00,VWS V14.01,2013-10-01 06:00:00,
2013-09-30 23:05:00,66.2,27.3,29.80,NNE,16,2.0,4.0,23,0.00,,---,0.00,VWS V14.01,2013-10-01 06:05:00,
2013-09-30 23:10:00,65.7,26.9,29.80,NNE,16,1.0,4.0,23,0.00,,---,0.00,VWS V14.01,2013-10-01 06:10:00,
2013-09-30 23:15:00,66.0,27.2,29.80,NE,37,1.0,4.0,23,0.00,,---,0.00,VWS V14.01,2013-10-01 06:15:00,
2013-09-30 23:20:00,66.4,26.4,29.80,NNE,16,2.0,6.0,22,0.00,,---,0.00,VWS V14.01,2013-10-01 06:20:00,
2013-09-30 23:25:00,66.5,26.5,29.80,NNE,33,1.0,6.0,22,0.00,,---,0.00,VWS V14.01,2013-10-01 06:25:00,
2013-09-30 23:30:00,66.4,27.5,29.80,NNE,25,3.0,3.0,23,0.00,,---,0.00,VWS V14.01,2013-10-01 06:30:00,
2013-09-30 23:35:00,66.4,27.5,29.80,NNE,23,2.0,4.0,23,0.00,,---,0.00,VWS V14.01,2013-10-01 06:35:00,
2013-09-30 23:40:00,66.2,27.3,29.80,NE,40,2.0,4.0,23,0.00,,---,0.00,VWS V14.01,2013-10-01 06:40:00,
2013-09-30 23:46:00,66.0,27.2,29.80,NE,47,0.0,4.0,23,0.00,,---,0.00,VWS V14.01,2013-10-01 06:46:00,
2013-09-30 23:51:00,65.2,26.5,29.80,NE,46,2.0,4.0,23,0.00,,---,0.00,VWS V14.01,2013-10-01 06:51:00,
2013-09-30 23:56:00,64.1,27.6,29.80,NE,42,3.0,4.0,25,0.00,,---,0.00,VWS V14.01,2013-10-01 06:56:00,